Regional Weather Roundup
Issued by NWS Wakefield, VA

Home | Current Version | Previous Version | Graphics & Text | Print | Product List | Glossary Off
Versions: 1 2 3 4 5 6 7 8 9 10 11 12 13 14 15 16 17 18 19 20 21 22 23 24 25 26 27 28 29 30 31 32 33 34 35 36 37 38 39 40 41 42 43 44 45 46 47 48 49 50

000
ASUS41 KAKQ 280110
RWRAKQ

REGIONAL WEATHER ROUNDUP
NATIONAL WEATHER SERVICE WAKEFIELD VA
800 PM EST TUE JAN 27 2015

Note: "fair" indicates few or no clouds below 12,000 feet with no
significant weather and/or obstructions to visibility. * = Denotes
station may not report precipitation (e.g., rain,snow,etc.),
thunder or fog.

VAZ042-051-052>054-056-280200-
NORTHERN VIRGINIA

CITY           SKY/WX    TMP DP  RH WIND       PRES   REMARKS
WASH NATIONAL  PTCLDY    33  18  53 NW17G25   29.90R WCI  22
DULLES         PTCLDY    28  17  63 NW17G25   29.91R WCI  16
FORT BELVOIR   CLEAR     31  19  61 NW15G22   29.91R WCI  20
QUANTICO       MOCLDY    31  18  58 N16G28    29.92R WCI  20
FREDERICKSBRG* CLOUDY    33  21  63 NW14G20   29.89S WCI  23
STAFFORD*      CLOUDY    31  18  58 NW18      29.94R WCI  19
WARRENTON      CLOUDY    31  24  73 NW15      29.90S WCI  20
CULPEPER*      MOCLDY    32  19  59 NW6       29.91S
MANASSAS*      NOT AVBL
LEESBURG*      PTCLDY    30  23  74 NW17G28   29.91R WCI  18
WINCHESTER     CLOUDY    28  14  54 W16G28    29.92F WCI  17
FRONT ROYAL*   CLOUDY    28  19  69 NW7       29.93S
LURAY*         CLOUDY    30  19  64 W8        29.94S
$$

VAZ048-049-060>072-079>083-280200-
CENTRAL AND SOUTH CENTRAL VIRGINIA

CITY           SKY/WX    TMP DP  RH WIND       PRES   REMARKS
RICHMOND       CLOUDY    34  24  67 N12       29.89R
CHESTERFIELD*  CLOUDY    34  19  55 N6        29.90R
PETERSBURG*    CLOUDY    35  29  79 NW6       29.90R
HANOVER        MOCLDY    32  22  66 NW8       29.91R
TAPPAHANNOCK*  MOCLDY    32  19  58 NW8G17    29.88S
QUINTON*       CLOUDY    33  23  66 NW8       29.88S
CHARLOTTSVILLE PTCLDY    30  16  56 NW12      29.90R WCI  20
GORDONSVILLE*  CLOUDY    32  19  60 W5        29.90S
ORANGE*        CLOUDY    32  25  74 CALM      29.91S
LOUISA*        MOCLDY    32  25  74 NW3       29.88S
BUMPASS*       FAIR      32  22  68 CALM      29.89S
FARMVILLE*     MOCLDY    33  22  64 N5        29.90R
CREWE*         FAIR      32  22  67 NW8       29.89R
FORT PICKETT*  CLOUDY    32  26  79 NW5       29.89R
CHASE CITY*    FAIR      31  27  88 NW3       29.90R
CLARKSVILLE*   FAIR      34  23  64 N5        29.90R
SOUTH HILL*    PTCLDY    31  25  78 N3        29.94S
LAWRENCEVILLE* CLOUDY    32  29  90 CALM      29.88R
EMPORIA*       CLOUDY    32  30  93 CALM      29.91R
$$

VAZ088>098-280200-
SOUTHEAST VIRGINIA

CITY           SKY/WX    TMP DP  RH WIND       PRES   REMARKS
NORFOLK        MOCLDY    35  24  64 VRB7      29.86R
VIRGINIA BEACH PTCLDY    35  26  69 NW12      29.85R
NORFOLK NAVAL  PTCLDY    38  25  59 NW13      29.87R
WEST POINT*    MOCLDY    36  23  59 NW6       29.90R
SALUDA*        MOCLDY    33  24  70 NW12G23   29.86R WCI  24
NEWPORT NEWS   CLOUDY    37  25  61 NW9       29.87R
LANGLEY AFB    CLOUDY    35  25  66 NW10      29.86R
FORT EUSTIS    CLOUDY    35  26  69 N13G22    29.86R
WILLIAMSBURG*    N/A     37  27  65 NW14G20   29.88S
HR EXEC AP*    CLOUDY    32  27  80 CALM      29.89R
FRANKLIN*      CLOUDY    34  28  79 NW3       29.89R
WAKEFIELD      CLOUDY    35  27  72 NW5       29.89R
$$

VAZ020-022-025-037-045-280200-
WEST CENTRAL AND SOUTHWEST VIRGINIA

CITY           SKY/WX    TMP DP  RH WIND       PRES   REMARKS
STAUNTON*      CLOUDY    27  13  55 N12G18    29.94S WCI  17
WAYNESBORO*    CLOUDY    25  13  60 NW8       29.91R
HOT SPRINGS VA FLURRIES  13   9  83 NW23G32   29.77R WCI  -6
LYNCHBURG      CLEAR     29  12  49 VRB6      29.93R
DANVILLE       CLEAR     36   4  26 NW14G23   29.93R
SOUTH BOSTON*  FAIR      35   6  29 NW9G20    29.91R
MARTINSVILLE   PTCLDY    33   1  25 N7        29.96R
ROANOKE        PTCLDY    26  10  50 NW12G22   29.99R WCI  16
BLACKSBURG     PTCLDY    22   9  56 NW12G18   29.96R WCI  10
DUBLIN*        CLEAR     24  13  62 N10       29.96R WCI  14
MARION*        CLEAR     27   1  33 W16G22    29.96R WCI  14
HILLSVILLE*    CLEAR     25  -6  26 NW16G22   29.88R WCI  12
RICHLANDS*     FAIR      23   4  43 NW9       29.98R
WISE*          CLEAR     27  19  74 W7        30.01R
ABINGDON*      CLEAR     29  18  62 W6        30.01R
$$

MDZ021>025-VAZ099-100-280200-
SOUTHERN MARYLAND AND THE DELMARVA PENINSULA

CITY           SKY/WX    TMP DP  RH WIND       PRES   REMARKS
PATUXENT RIVER PTCLDY    32  23  69 NW17G26   29.86R WCI  21
BAY BRIDGE APT   N/A     32  21  64 NW15G23   29.87R WCI  22
LEONARDTOWN    CLEAR     32  21  64 NW8G21    29.88R
DOVER          CLEAR     31  19  62 W14G20    29.81R WCI  20
GEORGETOWN     CLEAR     32  17  54 NW8       29.82R
EASTON         CLEAR     32  25  74 NW16G25   29.88R WCI  21
CAMBRIDGE      CLEAR     34  23  64 NW16G22   29.85R WCI  23
SALISBURY      FAIR      33  23  66 W8        29.82R
OCEAN CITY     CLEAR     31  21  66 NW10      29.81R WCI  22
WALLOPS ISLAND CLEAR     32  24  72 NW15      29.83R WCI  22
ACCOMACK*      PTCLDY    32  25  74 NW16G24   29.84R WCI  21
$$

NCZ012>017-030>032-280200-
NORTH CENTRAL AND EASTERN NORTH CAROLINA

CITY           SKY/WX    TMP DP  RH WIND       PRES   REMARKS
ROANOKE RAPIDS CLOUDY    34  30  86 CALM      29.90R
RALEIGH        PTCLDY    37  11  34 VRB5      29.89R
ELIZABETH CITY CLOUDY    34  28  79 W9        29.87R
AHOSKIE*       CLOUDY    33  29  83 CALM      29.90R
EDENTON*       CLOUDY    35  31  85 NW6       29.88S
CURRITUCK*     CLEAR     34  27  77 W6        29.86S
KILL DEVIL HLS CLOUDY    35  30  80 NW9       29.84R
MANTEO         CLOUDY    36  30  80 NW9       29.86R
CAPE HATTERAS  CLOUDY    36  31  82 NW15G25   29.86R
TARBORO*       CLOUDY    36  31  81 CALM      29.91R
GOLDSBORO      FAIR      30  30  98 CALM      29.89R
WASHINGTON     CLOUDY    35  29  79 CALM      29.90R
GREENVILLE     CLOUDY    36  30  80 CALM      29.92R
NEW BERN       PTCLDY    36  27  69 NW3       29.90R
WILMINGTON     CLEAR     35  28  75 CALM      29.92R
$$

VAZ048-280200-
ELSEWHERE

CITY           SKY/WX    TMP DP  RH WIND       PRES   REMARKS
HARRISBURG PA  PTCLDY    27  12  53 NW14      29.86R WCI  16
BALTIMORE      PTCLDY    29  18  63 W15G22    29.86R WCI  18
ANNAPOLIS      CLEAR     32  21  64 NW14      29.86R WCI  22
ANDREWS AFB    CLEAR     30  20  66 NW13G23   29.87R WCI  20
PHILADELPHIA   MOCLDY    30   7  37 N16       29.82R WCI  19
HENDERSON NC   CLEAR     35   8  32 NW7       29.90R
GREENSBORO     PTCLDY    34   7  32 NW9       29.91R
ROCKY MOUNT    CLEAR     29  26  89 CALM      29.90R
$$

VAZ100-280200-
MARINE

STATION/POSITION TIME  TEMP    WIND        PRES    WAVE   SWELL
                       AIR SEA DIR/SP/G            HT/PER HT/PER
                 (UTC) (F)     (DEG/KT/KT) (MB)    (FT/S) (FT/S)
BRANDYWINE LGT   0100   33 37  330/ 16/ 19 1009.0R
CAPE MAY NJ      0100   33 37  320/ 19/ 25 1008.4R
LEWES DE         0100   32 36  300/ 14/ 17 1009.0R
15NM E FENWICK I 0100   34 41              1008.1R   8/12
OCEAN-CITY-INLET 0100   33 38  330/ 10/ 12 1009.1R
WACHAPREAGUE VA  0100   33 40  310/  4/  9 1010.2R
THOMAS POINT MD  0100   32 36  310/ 15/ 17 1012.3R
GOOSES REEF MD   0100   33     VRB 19/ 25  1009.9R
COVE POINT MD    0100   32     340/ 20/ 24 1010.8R
SOLOMONS ISLAND  0100      38                N/A
BISHOPS HEAD MD  0100   32 36  320/ 16/ 21 1010.2R
PINEY POINT MD   0100          350/ 22/ 26   N/A
POTOMAC MD       0100   34     340/ 17/ 21 1010.1R
CAMBRIDGE MD     0100   33 36  310/ 18/ 24 1010.4R
LEWISETTA VA     0100   33 38  340/ 13/ 18 1011.3R
RAPPAHANNOCK LGT 0100          310/ 23/ 26 1011.2R
STINGRAY PT      0100   34     330/ 17/ 21 1011.6R
YORK RVR RNG VA  0100   35     320/ 13/ 15 1010.5R
JAMESTOWN VA     0100   35     350/ 16/ 19   N/A
DOMINION TERM VA 0100   36     330/ 16/ 19 1011.1S
KIPTOPEKE VA     0100      45  330/ 20/ 24   N/A
CHES BAY BRIDGE  0100   36 41  300/ 19/ 23 1010.4R
CAPE HENRY VA    0100   36     310/ 21/ 23 1009.4R
CHESAPEAKE LGHT  0000   36     320/ 23/ 25 1010.4R
WILLOUBY STN VA  0100   36     310/ 15/ 20 1011.5S
S CRANEY ISL VA  0100          320/ 11/ 16 1011.0R
CAPE HENRY BUOY  0100      44                N/A     6/13   3/13
1ST LANDING BUOY 0100   37     310/ 19/ 25 1010.4R
CAPE CHARLES BUO 0100      42                N/A     6/13   5/13
OFFSHORE WE BUOY 0100      46                N/A     8/13   7/13
64NM E OF VA BCH 0100   39 51  330/ 23/ 27 1008.5R  14/14  11/14
DUCK PIER NC     0100   36 43  310/ 12/ 17 1009.9R
44100 DUCK FRF   0100      45                N/A    10/13   8/13
44056 DUCK FRF   0100      43                N/A     8/13   5/13
OREGON INLET NC  0100   36 44  300/ 10/ 16 1010.6R
HATTERAS NC      0100   37 48  320/ 19/ 23 1011.2R
DIAMOND SHLS NC  0100   40 69  320/ 19/ 25 1009.9R   9/14   7/14


USA.gov is the U.S. government's official web portal to all federal, state and local government web resources and services.